This demonstration page uses our WeatherBlox Daily Observations layout. Learn more.

40.92945, -100.16068

Hourly Observations for May 24, 2017

Temp ( °F °C ) Dew Point ( °F °C ) Humidity (%) Winds ( mph kmh ) Pressure ( in mb ) Visibility ( mi km ) Precip ( " mm )
12:15 am 00:15 Clear 43 5.9 39 3.7 86 86 NW 5 7 30.03 1017 10 16.09344 0 0
12:35 am 00:35 Partly Cloudy 42 5.3 38 3.3 87 87 NW 5 7 30.03 1017 10 16.09344 0 0
12:55 am 00:55 Mostly Cloudy 41 5 38 3.1 88 88 WNW 5 7 30.03 1017 10 16.09344 0 0
1:15 am 01:15 Partly Cloudy 41 5.1 38 3.3 88 88 NW 6 9 30 1016 10 16.09344 0 0
1:35 am 01:35 Clear 41 4.8 38 3.1 89 89 NW 7 11 30 1016 10 16.09344 0 0
1:55 am 01:55 Partly Cloudy 39 4.1 37 2.9 92 92 W 8 13 30 1016 10 16.09344 0 0
2:15 am 02:15 Partly Cloudy 42 5.4 39 4.1 91 91 W 9 15 30 1016 10 16.09344 0 0
2:35 am 02:35 Mostly Cloudy 42 5.7 39 4.1 90 90 W 10 17 29.97 1015 10 16.09344 0 0
2:55 am 02:55 Mostly Cloudy 43 6 39 4.1 88 88 W 9 15 29.94 1014 10 16.09344 0 0
3:15 am 03:15 Mostly Cloudy 42 5.5 39 3.8 89 89 WNW 9 15 29.97 1015 10 16.09344 0 0
3:35 am 03:35 Clear 42 5.3 38 3.6 89 89 WNW 10 17 29.97 1015 10 16.09344 0 0
3:55 am 03:55 Partly Cloudy 41 5 38 3.6 91 91 NW 8 13 29.97 1015 10 16.09344 0 0
4:15 am 04:15 Cloudy 42 5.5 39 3.9 90 90 NW 9 15 29.97 1015 10 16.09344 0 0
4:40 am 04:40 Partly Cloudy 40 4.2 37 2.8 91 91 WNW 9 15 29.97 1015 10 16.09344 0 0
4:55 am 04:55 Clear 39 3.8 37 2.5 91 91 NW 7 11 29.94 1014 10 16.09344 0 0
5:15 am 05:15 Clear 38 3.6 37 2.5 93 93 WNW 8 13 29.94 1014 10 16.09344 0 0
5:35 am 05:35 Clear 38 3.3 36 2.2 93 93 WNW 8 13 29.94 1014 10 16.09344 0 0
5:55 am 05:55 Clear 37 2.7 35 1.6 93 93 WNW 7 11 29.94 1014 10 16.09344 0 0
6:20 am 06:20 Sunny 37 2.6 35 1.6 93 93 NW 6 9 29.94 1014 10 16.09344 0 0
6:35 am 06:35 Sunny 37 2.6 35 1.6 93 93 NW 7 11 29.94 1014 10 16.09344 0 0
6:55 am 06:55 Sunny 37 3 36 2 93 93 WNW 6 9 29.91 1013 10 16.09344 0 0
7:15 am 07:15 Sunny 39 4 37 2.7 91 91 WNW 6 9 29.91 1013 10 16.09344 0 0
7:35 am 07:35 Sunny 41 4.8 38 3.3 90 90 NW 7 11 29.91 1013 10 16.09344 0 0
7:55 am 07:55 Sunny 42 5.6 38 3.5 87 87 WNW 8 13 29.88 1012 10 16.09344 0 0
8:15 am 08:15 Sunny 44 6.5 40 4.2 85 85 W 7 11 29.88 1012 10 16.09344 0 0
8:35 am 08:35 Sunny 46 7.5 40 4.7 83 83 WNW 8 13 29.88 1012 10 16.09344 0 0
8:55 am 08:55 Sunny 48 8.7 42 5.5 81 81 WNW 8 13 29.85 1011 10 16.09344 0 0
9:15 am 09:15 Sunny 49 9.5 42 5.6 77 77 WNW 7 11 29.85 1011 10 16.09344 0 0
9:35 am 09:35 Sunny 50 10.2 42 5.8 74 74 NNW 5 7 29.85 1011 10 16.09344 0 0
9:55 am 09:55 Sunny 52 11 43 6 72 72 Calm 29.83 1010 10 16.09344 0 0
10:15 am 10:15 Sunny 53 11.5 42 5.7 68 68 Calm 29.8 1009 10 16.09344 0 0
10:35 am 10:35 Sunny 54 12.2 42 5.8 65 65 NNW 6 9 29.8 1009 10 16.09344 0 0
10:55 am 10:55 Sunny 55 12.6 42 5.5 62 62 WNW 5 7 29.8 1009 10 16.09344 0 0
11:15 am 11:15 Sunny 55 13 42 5.4 60 60 NNE 5 7 29.77 1008 10 16.09344 0 0
11:35 am 11:35 Partly Cloudy 56 13.4 42 5.8 60 60 WNW 6 9 29.77 1008 10 16.09344 0 0
11:55 am 11:55 Partly Cloudy 56 13.5 42 5.3 58 58 W 3 6 29.77 1008 10 16.09344 0 0
12:15 pm 12:15 Sunny 57 14 42 5.5 57 57 NNW 3 6 29.74 1007 10 16.09344 0 0
12:35 pm 12:35 Sunny 58 14.6 43 6.3 58 58 SE 5 7 29.71 1006 10 16.09344 0 0
12:55 pm 12:55 Sunny 59 14.9 43 6.1 56 56 SSE 7 11 29.71 1006 10 16.09344 0 0
1:15 pm 13:15 Sunny 60 15.3 43 6.2 55 55 S 5 7 29.71 1006 10 16.09344 0 0
1:35 pm 13:35 Sunny 60 15.7 44 6.6 55 55 S 5 7 29.71 1006 10 16.09344 0 0
1:55 pm 13:55 Sunny 61 16.2 44 6.4 52 52 SSW 7 11 29.68 1005 10 16.09344 0 0
2:15 pm 14:15 Sunny 62 16.6 44 6.6 52 52 SSE 5 7 29.68 1005 10 16.09344 0 0
2:35 pm 14:35 Sunny 63 17.2 44 6.9 51 51 S 8 13 29.62 1003 10 16.09344 0 0
2:55 pm 14:55 Sunny 64 17.7 44 6.7 49 49 S 9 15 29.62 1003 10 16.09344 0 0
3:15 pm 15:15 Sunny 65 18.2 44 6.9 48 48 SSE 8 13 29.62 1003 10 16.09344 0 0
3:35 pm 15:35 Sunny 65 18.6 45 7 47 47 SSE 12 19 29.62 1003 10 16.09344 0 0
3:55 pm 15:55 Sunny 66 18.9 44 6.4 44 44 S 6 9 29.62 1003 10 16.09344 0 0
4:15 pm 16:15 Sunny 66 19 42 5.6 42 42 SSW 9 15 29.62 1003 10 16.09344 0 0
4:35 pm 16:35 Sunny 67 19.5 43 6.3 42 42 SSE 12 19 29.62 1003 10 16.09344 0 0
4:55 pm 16:55 Sunny 67 19.7 43 6.1 41 41 S 12 19 29.62 1003 10 16.09344 0 0
5:15 pm 17:15 Sunny 67 19.7 43 6.1 41 41 S 10 17 29.59 1002 10 16.09344 0 0
5:35 pm 17:35 Sunny 67 19.6 41 5.2 39 39 SSE 9 15 29.59 1002 10 16.09344 0 0
5:55 pm 17:55 Sunny 68 19.8 42 5.7 40 40 S 10 17 29.59 1002 10 16.09344 0 0
6:15 pm 18:15 Sunny 67 19.7 42 5.8 40 40 SSE 8 13 29.59 1002 10 16.09344 0 0
6:35 pm 18:35 Sunny 67 19.7 42 5.3 39 39 SSE 13 20 29.53 1000 10 16.09344 0 0
6:55 pm 18:55 Sunny 67 19.5 41 5.2 39 39 SSE 13 20 29.56 1001 10 16.09344 0 0
7:15 pm 19:15 Sunny 67 19.2 40 4.7 39 39 SSE 13 20 29.56 1001 10 16.09344 0 0
7:35 pm 19:35 Sunny 66 19 40 4.6 39 39 SSE 16 26 29.56 1001 10 16.09344 0 0
7:55 pm 19:55 Sunny 65 18.5 42 5.3 42 42 SSE 12 19 29.56 1001 10 16.09344 0 0
8:15 pm 20:15 Sunny 64 18 42 5.6 44 44 SSE 10 17 29.56 1001 10 16.09344 0 0
8:35 pm 20:35 Sunny 63 17.1 42 5.6 47 47 SSE 10 17 29.56 1001 10 16.09344 0 0
8:55 pm 20:55 Sunny 62 16.6 43 5.9 49 49 SSE 10 17 29.56 1001 10 16.09344 0 0
9:15 pm 21:15 Clear 61 16 43 6.1 52 52 SE 12 19 29.53 1000 10 16.09344 0 0
9:35 pm 21:35 Clear 60 15.6 44 6.4 55 55 SSE 14 22 29.56 1001 10 16.09344 0 0
9:55 pm 21:55 Clear 59 15 44 6.7 58 58 SSE 13 20 29.56 1001 10 16.09344 0 0
10:15 pm 22:15 Clear 59 15 44 6.6 57 57 SE 16 26 29.56 1001 10 16.09344 0 0
10:35 pm 22:35 Clear 58 14.6 44 6.6 59 59 SSE 13 20 29.56 1001 10 16.09344 0 0
10:55 pm 22:55 Clear 58 14.5 44 6.6 59 59 SSE 15 24 29.56 1001 10 16.09344 0 0
11:15 pm 23:15 Clear 57 14 44 6.5 61 61 SE 14 22 29.56 1001 10 16.09344 0 0
11:35 pm 23:35 Clear 57 13.8 44 6.6 62 62 SE 14 22 29.56 1001 10 16.09344 0 0
11:55 pm 23:55 Clear 56 13.5 44 6.9 65 65 SE 14 22 29.56 1001 10 16.09344 0 0

Powered by AerisWeather